www.pogodaiklimat.ru

Погода и климат >> Архив погоды >> Австралия >> Новый Южный Уэльс >> Кобар аэропорт


ПОГОДА в Кобар аэропорту

  • Прогноз погоды в Кобар аэропорту
  • Монитор погоды в Кобар аэропорту

АРХИВ ПОГОДЫ в Кобар аэропорту

Время (UTC), дата Ветер
(напр.,м/с)
 
Видим.   Явления Облачность Т
(С)
Тd
(С)
f
(%)
Тe
(С)
Тes
(С)
Комфортность P
(гПа)
Po
(гПа)
Тmin
(С)
Tmax
(С)
R
(мм)
R24
(мм)
S
(см)
10 15.05 Ю 3 н/о н/о +12.8 +2.1 48 +12 +12 1028.0 1001.8
11 15.05 Ю 2 н/о н/о +9.7 +1.8 58 +8 +8 1028.1 1001.9
12 15.05 штиль 0 н/о н/о +8.8 +2.6 65 +8 +8 1028.1 1001.9
13 15.05 ЮВ 1 н/о н/о +7.9 +2.8 70 +8 +8 1027.8 1001.6
14 15.05 ЮВ 1 н/о н/о +6.2 +2.3 76 +6 +6 1027.2 1001.1 +21.9
15 15.05 штиль 0 н/о н/о +6.7 +2.8 76 +6 +6 1026.9 1000.8
16 15.05 ЮВ 3 н/о н/о +8.9 +3.3 68 +7 +7 1026.6 1000.5
17 15.05 ЮВ 3 н/о н/о +8.5 +3.1 69 +6 +6 1026.3 1000.2
18 15.05 ЮВ 3 н/о н/о +7.6 +3.3 74 +5 +5 1026.0 999.9
19 15.05 ЮВ 2 н/о н/о +5.9 +2.0 76 +4 +4 1026.1 1000.0
20 15.05 ЮВ 2 н/о н/о +6.1 +2.6 78 +4 +4 1026.3 1000.2
21 15.05 штиль 0 н/о н/о +5.1 +2.8 85 +4 +4 1026.8 1000.7
22 15.05 штиль 0 н/о н/о +8.2 +3.7 73 +8 +8 1027.3 1001.2
23 15.05 В 3 н/о н/о +15.1 +5.9 54 +14 +14 1027.6 1001.4
00 16.05 СВ 3 н/о н/о +17.5 +6.1 47 +18 +18 1027.3 1001.2
01 16.05 С 2 н/о н/о +20.0 +6.0 40 +22 +22 комфорт 1026.8 1000.7
02 16.05 СВ 1 н/о н/о +22.1 +2.8 28 +22 +22 комфорт 1025.7 999.6 +5.0
03 16.05 З 1 н/о н/о +22.6 +4.2 30 +23 +23 комфорт 1024.7 998.6
04 16.05 ЮВ 2 н/о н/о +22.7 +3.8 29 +23 +23 комфорт 1023.9 997.8
05 16.05 З 4 н/о н/о +23.2 +5.2 31 +23 +23 комфорт 1023.4 997.4
06 16.05 З 3 н/о н/о +23.1 +4.6 30 +23 +23 комфорт 1023.3 997.3
07 16.05 З 2 н/о н/о +22.1 +5.1 33 +22 +22 комфорт 1023.6 997.5
08 16.05 Ю 2 н/о н/о +18.2 +5.1 42 +19 +19 1024.0 997.9
09 16.05 Ю 1 н/о н/о +15.6 +5.5 51 +16 +16 1024.5 998.4
10 16.05 ЮВ 2 н/о н/о +15.8 +4.8 48 +16 +16 1025.0 998.9
11 16.05 В 2 н/о 5/0 2000 м
[]
+13.0 +5.2 59 +13 +13 1025.4 999.3
12 16.05 штиль 0 н/о н/о +11.6 +5.5 66 +11 +11 1025.4 999.3
13 16.05 штиль 0 н/о н/о +10.9 +5.7 70 +10 +10 1025.2 999.1
14 16.05 штиль 0 н/о н/о +10.1 +5.7 74 +10 +10 1024.9 998.8 +24.0
15 16.05 В 2 н/о н/о +9.4 +5.4 76 +8 +8 1024.9 998.8
16 16.05 В 1 н/о н/о +9.5 +4.3 70 +10 +10 1024.5 998.4
17 16.05 ЮВ 1 н/о н/о +9.0 +4.6 74 +9 +9 1024.2 998.1
18 16.05 СВ 3 н/о н/о +9.7 +4.9 72 +8 +8 1024.2 998.1
19 16.05 СВ 2 н/о н/о +9.6 +5.4 75 +9 +9 1024.4 998.3
20 16.05 штиль 0 н/о 9/0 2000 м
[]
+10.3 +6.5 77 +10 +10 1024.6 998.5
21 16.05 В 2 н/о н/о +10.8 +6.6 75 +10 +10 1025.2 999.1
22 16.05 СВ 2 н/о н/о +14.3 +7.4 63 +14 +14 1025.9 999.8
23 16.05 В 3 н/о 8/0 2000 м
[]
+16.9 +8.3 57 +17 +18 1026.4 1000.3
00 17.05 СВ 3 н/о н/о +19.6 +8.9 50 +21 +21 комфорт 1026.7 1000.6
01 17.05 СВ 3 н/о н/о +21.6 +10.1 48 +23 +23 комфорт 1026.5 1000.4
02 17.05 С 3 н/о 8/0 2000 м
[]
+22.6 +9.7 44 +24 +29 комфорт 1025.5 999.4 +8.7
03 17.05 С 2 н/о н/о +24.5 +8.5 36 +25 +25 комфорт 1024.4 998.3
04 17.05 ЮЗ 2 н/о н/о +24.2 +6.5 32 +24 +24 комфорт 1023.7 997.6
05 17.05 Ю 3 н/о 5/0 2000 м
[]
+24.4 +6.2 31 +24 +27 комфорт 1023.6 997.5
06 17.05 Ю 3 н/о н/о +24.3 +5.6 30 +24 +24 комфорт 1023.4 997.4
07 17.05 ЮВ 3 н/о н/о +23.6 +6.4 33 +24 +24 комфорт 1023.9 997.8
08 17.05 ЮВ 3 н/о ясно +20.6 +6.5 40 +22 +22 комфорт 1024.3 998.2
09 17.05 ЮВ 3 н/о н/о +18.1 +5.7 44 +18 +18 1025.0 998.9
10 17.05 В 2 н/о н/о +16.7 +6.2 50 +17 +17 1025.9 999.8
11 17.05 В 3 н/о н/о +17.7 +6.6 48 +18 +18 1026.3 1000.2
12 17.05 В 3 н/о н/о +15.3 +5.2 51 +15 +15 1026.5 1000.4
13 17.05 В 3 н/о н/о +17.2 +5.8 47 +17 +17 1026.5 1000.4
14 17.05 СВ 3 н/о н/о +14.7 +5.5 54 +14 +14 1026.6 1000.5 +25.5
15 17.05 В 4 н/о н/о +15.5 +5.4 51 +15 +15 1026.4 1000.3
16 17.05 В 4 н/о н/о +16.9 +5.8 48 +17 +17 1026.1 1000.0
17 17.05 В 3 н/о н/о +14.3 +5.7 56 +13 +13 1026.2 1000.1
18 17.05 В 3 н/о н/о +13.3 +5.9 61 +12 +12 1026.2 1000.1
19 17.05 СВ 3 н/о н/о +13.0 +5.9 62 +12 +12 1026.5 1000.4
20 17.05 В 4 н/о н/о +13.7 +6.3 61 +12 +12 1027.0 1000.9
21 17.05 В 4 н/о н/о +14.0 +7.1 63 +13 +13 1027.5 1001.3
22 17.05 В 5 н/о н/о +15.1 +7.4 60 +14 +14 1028.2 1002.0
23 17.05 В 4 н/о 8/0 2000 м
[]
+17.8 +8.6 55 +18 +19 1028.6 1002.4
00 18.05 СВ 4 н/о н/о +20.5 +9.7 50 +22 +22 комфорт 1029.0 1002.8
01 18.05 СВ 6 н/о н/о +22.9 +10.0 44 +25 +25 комфорт 1028.6 1002.4
02 18.05 В 5 н/о 1/0 2000 м
[]
+23.6 +8.1 37 +24 +28 комфорт 1027.8 1001.6 +13.1
03 18.05 СВ 3 н/о н/о +25.2 +8.7 35 +26 +26 жарко 1026.8 1000.7
04 18.05 СВ 3 н/о н/о +24.8 +6.5 31 +25 +25 комфорт 1026.0 999.9
05 18.05 Ю 5 н/о 8/0 2000 м
[]
+25.2 +6.9 31 +25 +27 комфорт 1025.6 999.5
06 18.05 В 4 н/о н/о +24.1 +6.4 32 +24 +24 комфорт 1025.9 999.8
07 18.05 ЮВ 3 н/о н/о +22.9 +6.6 35 +24 +24 комфорт 1026.0 999.9
08 18.05 ЮВ 3 н/о н/о +20.3 +6.3 40 +22 +22 комфорт 1026.4 1000.3
09 18.05 В 3 н/о н/о +19.5 +6.6 43 +20 +20 1027.2 1001.1
10 18.05 ЮВ 3 н/о н/о +18.9 +6.1 43 +19 +19 1027.8 1001.6
11 18.05 В 3 н/о н/о +18.1 +6.0 45 +18 +18 1027.8 1001.6
12 18.05 В 4 н/о н/о +18.0 +5.9 45 +18 +18 1027.8 1001.6
13 18.05 В 5 н/о н/о +18.0 +5.2 43 +18 +18 1027.9 1001.7
14 18.05 В 4 н/о н/о +17.3 +4.6 43 +17 +17 1027.5 1001.3 +26.0
15 18.05 В 4 н/о н/о +16.3 +4.4 45 +16 +16 1027.7 1001.5
16 18.05 В 4 н/о н/о +16.1 +3.9 44 +15 +15 1027.3 1001.2
17 18.05 В 3 н/о н/о +15.3 +3.5 45 +15 +15 1027.5 1001.3
18 18.05 В 3 н/о н/о +14.8 +3.6 47 +14 +14 1027.2 1001.1
19 18.05 В 3 н/о н/о +14.8 +3.6 47 +14 +14 1027.3 1001.2
20 18.05 В 3 н/о 4/0
[]
+14.3 +4.0 50 +14 +14 1027.7 1001.5
21 18.05 В 3 н/о н/о +13.6 +4.5 54 +13 +13 1028.3 1002.1
22 18.05 В 4 н/о н/о +14.7 +5.2 53 +14 +14 1028.5 1002.3
23 18.05 СВ 5 н/о н/о +17.6 +6.8 49 +17 +17 1028.8 1002.6
00 19.05 СВ 5 н/о н/о +19.9 +7.9 46 +21 +21 комфорт 1028.7 1002.5
01 19.05 СВ 4 н/о н/о +21.1 +8.4 44 +22 +22 комфорт 1028.1 1001.9
02 19.05 СВ 4 н/о 9/0
[]
+22.0 +7.8 40 +23 +26 комфорт 1027.2 1001.1 +13.5
03 19.05 С 4 н/о н/о +23.1 +7.6 37 +24 +24 комфорт 1026.3 1000.2
04 19.05 С 3 н/о н/о +23.4 +7.9 37 +24 +24 комфорт 1025.4 999.3
05 19.05 СВ 3 н/о 6/0
[]
+23.9 +7.9 36 +24 +27 комфорт 1025.3 999.2
06 19.05 СВ 2 н/о н/о +23.3 +7.8 37 +24 +24 комфорт 1024.9 998.8
07 19.05 ЮВ 2 н/о н/о +21.8 +8.7 43 +23 +23 комфорт 1024.9 998.8
08 19.05 штиль 0 н/о 10/0 2000 м
[]
+19.6 +9.2 51 +20 +20 1025.1 999.0
09 19.05 В 3 н/о н/о +19.8 +7.5 45 +21 +21 комфорт 1025.2 999.1
10 19.05 В 2 н/о н/о +17.1 +8.8 58 +18 +18 1025.6 999.5
11 19.05 СВ 3 н/о 10/0
[]
+17.5 +7.8 53 +18 +18 1025.9 999.8
12 19.05 СВ 3 н/о н/о +16.8 +8.0 56 +17 +17 1026.0 999.9
13 19.05 СВ 3 н/о н/о +17.2 +7.5 53 +17 +17 1025.8 999.7
14 19.05 СВ 3 н/о 10/0
[]
+17.2 +7.5 53 +17 +17 1025.6 999.5 +24.4
15 19.05 СВ 2 н/о н/о +15.2 +7.3 59 +15 +15 1025.4 999.3
16 19.05 СВ 3 н/о н/о +15.6 +7.6 59 +15 +15 1025.3 999.2
17 19.05 СЗ 2 н/о 10/0
[]
+14.2 +7.7 65 +14 +14 1025.3 999.2
18 19.05 СВ 3 н/о н/о +15.1 +7.9 62 +15 +15 1025.1 999.0
19 19.05 СВ 3 н/о н/о +14.5 +7.3 62 +14 +14 1025.1 999.0
20 19.05 СВ 3 н/о 9/0
[]
+13.9 +7.4 65 +13 +13 1025.3 999.2
21 19.05 СВ 4 н/о н/о +14.0 +7.3 64 +13 +13 1025.7 999.6
22 19.05 СВ 3 н/о н/о +14.7 +7.3 61 +14 +14 1026.3 1000.2
23 19.05 СВ 5 н/о 8/0
[]
+17.3 +7.4 52 +17 +17 1026.5 1000.4
00 20.05 СВ 4 н/о н/о +20.8 +8.1 44 +22 +22 комфорт 1026.5 1000.4
01 20.05 С 5 н/о н/о +22.9 +7.4 37 +24 +24 комфорт 1025.9 999.8
02 20.05 С 4 н/о н/о +23.8 +6.6 33 +24 +24 комфорт 1025.1 999.0 +13.4
03 20.05 С 3 н/о н/о +24.4 +6.2 31 +24 +24 комфорт 1024.2 998.1
04 20.05 СЗ 4 н/о н/о +24.4 +5.2 29 +24 +24 комфорт 1023.4 997.4
05 20.05 СЗ 4 н/о н/о +24.9 +6.1 30 +25 +25 комфорт 1023.2 997.2
06 20.05 СЗ 3 н/о н/о +24.8 +6.1 30 +25 +25 комфорт 1023.0 997.0
07 20.05 СЗ 1 н/о н/о +24.3 +6.1 31 +24 +24 комфорт 1022.9 996.9
08 20.05 штиль 0 н/о н/о +19.0 +5.8 42 +19 +19 1023.3 997.3
09 20.05 штиль 0 н/о н/о +16.4 +6.2 51 +16 +16 1023.9 997.8
10 20.05 СВ 2 н/о н/о +15.1 +6.7 57 +15 +15 1024.3 998.2
11 20.05 СВ 2 н/о н/о +14.0 +6.6 61 +14 +14 1024.6 998.5
12 20.05 СВ 2 н/о н/о +12.6 +5.8 63 +12 +12 1024.7 998.6
13 20.05 штиль 0 н/о н/о +11.6 +6.1 69 +11 +11 1024.7 998.6
14 20.05 штиль 0 н/о н/о +11.6 +6.3 70 +11 +11 1024.6 998.5 +25.7
15 20.05 СВ 2 н/о н/о +11.6 +6.3 70 +11 +11 1024.4 998.3
16 20.05 СВ 3 н/о н/о +12.7 +5.8 63 +11 +11 1023.9 997.8
17 20.05 СВ 3 н/о н/о +12.8 +5.5 61 +12 +12 1023.8 997.7
18 20.05 СВ 4 н/о н/о +13.7 +5.8 59 +12 +12 1023.9 997.8
19 20.05 СВ 4 н/о н/о +12.9 +6.0 63 +11 +11 1024.5 998.4
20 20.05 СВ 4 н/о н/о +12.8 +7.3 69 +11 +11 1024.5 998.4
21 20.05 СВ 3 н/о н/о +13.1 +8.4 73 +12 +12 1025.1 999.0
22 20.05 СВ 3 н/о н/о +15.0 +9.4 69 +15 +15 1025.8 999.7
23 20.05 С 3 н/о н/о +19.2 +10.2 56 +20 +20 1026.5 1000.4
00 21.05 С 4 н/о н/о +22.1 +10.9 49 +24 +24 комфорт 1026.6 1000.5
01 21.05 С 4 н/о н/о +23.2 +11.3 47 +25 +25 комфорт 1026.4 1000.3
02 21.05 С 4 н/о н/о +24.3 +9.8 40 +25 +25 комфорт 1025.6 999.5 +11.3
03 21.05 З 3 н/о н/о +24.9 +8.8 36 +25 +25 комфорт 1024.8 998.7
04 21.05 З 2 н/о н/о +25.4 +9.3 36 +26 +26 жарко 1024.0 997.9
05 21.05 СЗ 3 н/о н/о +25.8 +9.2 35 +26 +26 жарко 1023.8 997.7
06 21.05 З 1 н/о н/о +26.1 +9.0 34 +26 +26 жарко 1023.9 997.8
07 21.05 З 1 н/о н/о +25.1 +8.6 35 +26 +26 жарко 1024.2 998.1
08 21.05 штиль 0 н/о н/о +21.1 +8.4 44 +22 +22 комфорт 1024.7 998.6
09 21.05 штиль 0 н/о н/о +18.2 +8.7 54 +18 +18 1025.3 999.2
10 21.05 СВ 2 н/о н/о +17.1 +8.8 58 +17 +17 1025.8 999.7
11 21.05 штиль 0 н/о н/о +15.1 +8.6 65 +15 +15 1026.2 1000.1
12 21.05 штиль 0 н/о н/о +13.9 +8.1 68 +14 +14 1026.3 1000.2
13 21.05 СВ 3 н/о н/о +15.9 +9.1 64 +15 +15 1026.1 1000.0
14 21.05 СВ 3 н/о н/о +16.3 +9.0 62 +16 +16 1026.1 1000.0 +26.5
15 21.05 штиль 0 н/о н/о +13.2 +8.3 72 +13 +13 1026.2 1000.1
16 21.05 СВ 2 н/о н/о +11.9 +7.8 76 +11 +11 1026.2 1000.1
17 21.05 СВ 2 н/о н/о +12.0 +7.9 76 +11 +11 1026.2 1000.1
18 21.05 СВ 2 н/о н/о +11.9 +8.6 80 +11 +11 1026.3 1000.2
19 21.05 СВ 3 н/о н/о +14.0 +8.8 71 +13 +13 1026.5 1000.4
20 21.05 СВ 2 н/о н/о +12.1 +8.4 78 +11 +11 1026.9 1000.8
21 21.05 В 2 н/о н/о +11.5 +7.6 77 +11 +11 1027.7 1001.5
22 21.05 ЮВ 3 н/о н/о +15.1 +9.5 69 +15 +15 1028.9 1002.7
23 21.05 СВ 1 н/о 6/0 2000 м
[]
+18.4 +9.7 57 +20 +22 1029.3 1003.1
00 22.05 штиль 0 н/о н/о +19.8 +10.0 53 +21 +21 комфорт 1029.4 1003.2
01 22.05 С 1 н/о н/о +21.4 +9.3 46 +23 +23 комфорт 1029.1 1002.9
02 22.05 З 1 н/о 10/0
[]
+22.0 +9.5 45 +24 +28 комфорт 1028.3 1002.1 +10.9
03 22.05 штиль 0 н/о н/о +22.7 +8.4 40 +24 +24 комфорт 1027.3 1001.2
04 22.05 СЗ 3 н/о н/о +24.9 +10.8 41 +26 +26 жарко 1026.5 1000.4
05 22.05 З 4 н/о 3/0 2000 м
[]
+24.5 +8.5 36 +25 +27 комфорт 1026.2 1000.1
06 22.05 З 4 н/о н/о +24.4 +9.2 38 +25 +25 комфорт 1026.1 1000.0
07 22.05 З 3 н/о н/о +24.0 +9.6 40 +25 +25 комфорт 1026.2 1000.1
08 22.05 З 3 н/о н/о +20.8 +9.4 48 +23 +23 комфорт 1026.5 1000.4
09 22.05 штиль 0 н/о н/о +17.6 +9.0 57 +18 +18 1027.0 1000.9
10 22.05 штиль 0 н/о н/о +15.9 +8.9 63 +16 +16 1027.2 1001.1

 

Местоположение метеостанции Кобар аэропорт (Новый Южный Уэльс, Австралия): широта -31.53 долгота 145.80 высота над уровнем моря 218 м.

В архиве по умолчанию представлена погода в Кобар аэропорту за последнюю неделю. Архивные данные за месяц целиком и за предыдущие месяцы, начиная с января 2011 года, Вы можете получить, выбрав интересующий диапазон дат из раскрывающегося списка и нажав кнопку "Ввод!".


*Определитесь, кто Вы:
робот инопланетянин человек

Внимание! Время в таблицах - всемирное. Для получения местного времени необходимо прибавить поправку, которая равна 10 ч.

Смотрите также архив погоды в соседних городах и на ближайших метеорологических станциях:

Погода в Кобаре (Новый Южный Уэльс, Австралия) (6 км)
Погода в Бурке (Новый Южный Уэльс, Австралия) (167 км)
Погода в Айванхо (Новый Южный Уэльс, Австралия) (205 км)
Погода в Транги (Новый Южный Уэльс, Австралия) (209 км)
Погода в Кондоболине (Новый Южный Уэльс, Австралия) (217 км)
Погода в Уилкании (Новый Южный Уэльс, Австралия) (229 км)
Погода в Кунамбле (Новый Южный Уэльс, Австралия) (253 км)
Погода в Уафт Клифс (Новый Южный Уэльс, Австралия) (271 км)
Погода в Даббо (Новый Южный Уэльс, Австралия) (271 км)
Погода в Уолджетте (Новый Южный Уэльс, Австралия) (277 км)

Пояснения к столбцам:

Ветер - указаны скорость ветра в м/с - средняя за 10 мин, порывы в срок и между сроками (в фигурных скобках) и направление, откуда дует ветер: С - северный, СВ - северо-восточный, В - восточный, ЮВ - юго-восточный, Ю - южный, ЮЗ - юго-западный, З - западный, СЗ - северо-западный.
Видимость - горизонтальная дальность видимости в метрах или километрах. При видимости от 1 до 10 км при отсутствии осадков обычно наблюдается дымка, при ухудшении видимости до 1 км и менее - туман. В сухую погоду видимость может ухудшаться дымом, пылью или мглою.
Явления - указаны атмосферные явления, наблюдавшиеся в срок или в последний час перед сроком; фигурными скобками обозначены явления, наблюдавшиеся между сроками (за 1-3 часа до срока); квадратными скобками обозначены град или гололедные отложения с указанием их диаметра в мм.
Облачность - указаны через наклонную черту общая и нижняя облачность в баллах и высота нижней границы облаков в метрах; квадратными скобками обозначены формы облаков: Ci - перистые, Cs - перисто-слоистые, Cc - перисто-кучевые, Ac - высококучевые, As - высокослоистые, Sc - слоисто-кучевые, Ns - слоисто-дождевые, Cu - кучевые, Cb - кучево-дождевые. Подробнее классификацию облаков см. в Атласе облаков (PDF).
T - Температура воздуха - температура, измеренная на высоте 2 м над землей.
Td - Температура точки росы - температура, при понижении до которой содержащийся в воздухе водяной пар достигнет насыщения.
f - Относительная влажность воздуха - влажноcть воздуха, измеренная на высоте 2 м над землей.
Te - Эффективная температура - температура, которую ощущает одетый по сезону человек в тени. Характеристика душности погоды. При расчете учитывается влияние влажности воздуха и скорости ветра на теплоощущения человека.
Tes - Эффективная температура на солнце - температура, которую ощущает человек, с поправкой на солнечный нагрев. Характеристика знойности погоды. Зависит от высоты солнца над горизонтом, облачности и скорости ветра. Ночью, в пасмурную погоду, а также при ветре 12 м/с и более поправка равна нулю.
P - Атмосферное давление - приведенное к уровню моря атмосферное давление.
Po - Атмосферное давление - измеренное на уровне метеостанции атмосферное давление.
Tmin - Минимальная температура - минимум температуры воздуха на высоте 2 м над землей.
Tmax - Максимальная температура - максимум температуры воздуха на высоте 2 м над землей.
R - Количество осадков - Количество выпавших осадков за период времени, мм. При наведении курсора мыши на число - период времени, за который выпало указанное количество осадков.
R24 - Количество осадков - Количество выпавших осадков за 24 часа, мм.
S - Снежный покров - Высота снежного покрова, см. При наведении курсора мыши на число - состояние снежного покрова и степень покрытия местности в баллах.